Вернуться в каталог

SHIYAN 31

АктивенНаукаPO
NORAD 65945·PAYLOAD·🇨🇳 China
Это название спутника еще не подтверждено официальными источниками.

Запущен Oct 13, 2025 с Jiuquan Satellite Launch Center

Loading…

Ближайшие Пролёты (ближайшие 24 часа)

TLE

СвежийSource: Space-Track

Эпоха: Sep 14, 2026, 13:45 UTC

1 65945U 25227A   26257.57355567  .00005541  00000-0  22999-3 0  9991
2 65945  80.0059  15.5645 0009722 249.7554 110.2630 15.23681417 51169

Отслеживайте SHIYAN 31 в реальном времени с AllMySat

Download on the App Store